Erie, CO

12:24 AM MDT on June 23, 2017 (GMT -0600)
Erie Municipal Airport

Weather History for KEIK - October, 2013

Change the Weather History Date:

Thursday, October 31, 2013

  Actual Average (KBJC) Record (KBJC)
Temperature  
Mean Temperature 41 °F -  
Max Temperature 55 °F 53 °F 78 °F (2016)
Min Temperature 27 °F 34 °F 7 °F (1991)
Degree Days  
Heating Degree Days 24    
Moisture  
Dew Point 24 °F    
Average Humidity 54    
Maximum Humidity 96    
Minimum Humidity 25    
Precipitation  
Precipitation 0.00 in - - ()
Sea Level Pressure  
Sea Level Pressure 29.83 in    
Wind  
Wind Speed 5 mph (WNW)    
Max Wind Speed 24 mph    
Max Gust Speed 39 mph    
Visibility 10 miles    
Events      
Averages and records for this station are not official NWS values.
T = Trace of Precipitation, MM = Missing Value Source: NWS Daily Summary

Daily Weather History Graph

Daily Weather History Graph

Search for Another Location

Airport or City:

Trip Planner

Search our weather history database for the weather conditions in past years. The results will help you decide how hot, cold, wet, or windy it might be!

Date:

Astronomy

Oct. 31, 2013 Rise Set
Actual Time 7:28 AM MDT 5:58 PM MDT
Civil Twilight 7:00 AM MDT 6:26 PM MDT
Nautical Twilight 6:28 AM MDT 6:58 PM MDT
Astronomical Twilight 5:56 AM MDT 7:30 PM MDT
Moon 4:20 AM MDT (10/31) 4:18 PM MDT (10/31)
Length of Visible Light 11h 26m
Length of Day
10h 30m
Waning Crescent, 9% of the Moon is Illuminated
Oct 31
Waning Crescent
Nov 3
New
Nov 9
First Quarter
Nov 17
Full
Nov 25
Last Quarter

Hourly Weather History & Observations

Time (MDT) Temp. Windchill Dew Point Humidity Pressure Visibility Wind Dir Wind Speed Gust Speed Precip Events Conditions
12:14 AM 30.4 °F 25.6 °F 29.5 °F 96% 29.83 in 10.0 mi SW 4.6 mph - N/A   Clear
12:34 AM 30.4 °F - 29.1 °F 95% 29.83 in 10.0 mi Calm Calm - N/A   Clear
12:54 AM 29.3 °F - 28.2 °F 96% 29.84 in 10.0 mi Calm Calm - N/A   Clear
1:14 AM 29.7 °F 26.1 °F 28.0 °F 94% 29.84 in 10.0 mi SSE 3.5 mph - N/A   Clear
1:34 AM 29.8 °F - 27.5 °F 91% 29.83 in 10.0 mi Calm Calm - N/A   Clear
1:54 AM 29.8 °F - 27.7 °F 92% 29.83 in 10.0 mi Calm Calm - N/A   Clear
2:14 AM 29.5 °F 25.9 °F 27.9 °F 94% 29.83 in 10.0 mi SW 3.5 mph - N/A   Clear
2:34 AM 29.1 °F - 27.3 °F 93% 29.83 in 10.0 mi Calm Calm - N/A   Clear
2:54 AM 30.4 °F - 27.1 °F 88% 29.83 in 10.0 mi Calm Calm - N/A   Clear
3:14 AM 30.6 °F - 27.1 °F 87% 29.82 in 10.0 mi Calm Calm - N/A   Clear
3:34 AM 28.0 °F - 26.2 °F 93% 29.82 in 10.0 mi Calm Calm - N/A   Clear
3:54 AM 29.5 °F - 26.1 °F 87% 29.82 in 10.0 mi Calm Calm - N/A   Clear
4:14 AM 30.2 °F - 26.8 °F 87% 29.81 in 10.0 mi Calm Calm - N/A   Clear
4:34 AM 29.5 °F - 26.1 °F 87% 29.81 in 10.0 mi Calm Calm - N/A   Clear
4:54 AM 28.4 °F - 25.7 °F 90% 29.80 in 10.0 mi Calm Calm - N/A   Clear
5:14 AM 28.4 °F - 25.3 °F 88% 29.80 in 10.0 mi Calm Calm - N/A   Clear
5:34 AM 27.7 °F - 24.4 °F 88% 29.81 in 10.0 mi Calm Calm - N/A   Clear
5:54 AM 28.9 °F - 25.0 °F 85% 29.81 in 10.0 mi Calm Calm - N/A   Clear
6:14 AM 27.9 °F 24.0 °F 24.8 °F 88% 29.81 in 10.0 mi South 3.5 mph - N/A   Clear
6:34 AM 28.4 °F 24.6 °F 24.8 °F 86% 29.81 in 10.0 mi SSW 3.5 mph - N/A   Clear
6:54 AM 28.0 °F 21.7 °F 24.4 °F 86% 29.81 in 10.0 mi WSW 5.8 mph - N/A   Clear
7:14 AM 31.8 °F 28.5 °F 23.4 °F 71% 29.80 in 10.0 mi South 3.5 mph - N/A   Clear
7:34 AM 31.6 °F 28.3 °F 23.5 °F 72% 29.80 in 10.0 mi South 3.5 mph - N/A   Clear
7:54 AM 32.2 °F - 23.4 °F 70% 29.80 in 10.0 mi Calm Calm - N/A   Clear
8:14 AM 37.2 °F 34.7 °F 22.8 °F 56% 29.81 in 10.0 mi WSW 3.5 mph - N/A   Clear
8:34 AM 39.6 °F 35.4 °F 25.2 °F 56% 29.82 in 10.0 mi West 5.8 mph - N/A   Clear
8:54 AM 42.3 °F - 27.7 °F 56% 29.82 in 10.0 mi Calm Calm - N/A   Clear
9:14 AM 44.6 °F - 29.1 °F 55% 29.82 in 10.0 mi Calm Calm - N/A   Clear
9:34 AM 48.0 °F - 24.4 °F 40% 29.82 in 10.0 mi Calm Calm - N/A   Clear
9:54 AM 47.7 °F - 24.6 °F 41% 29.83 in 10.0 mi North 3.5 mph - N/A   Clear
10:14 AM 48.2 °F - 29.7 °F 49% 29.83 in 10.0 mi North 6.9 mph - N/A   Clear
10:34 AM 47.7 °F - 25.5 °F 42% 29.83 in 10.0 mi NNE 3.5 mph - N/A   Clear
10:54 AM 48.6 °F - 27.5 °F 44% 29.83 in 10.0 mi NNE 4.6 mph - N/A   Clear
11:14 AM 49.8 °F - 26.8 °F 41% 29.84 in 10.0 mi North 6.9 mph - N/A   Clear
11:34 AM 51.3 °F - 28.2 °F 41% 29.84 in 10.0 mi North 8.1 mph - N/A   Clear
11:54 AM 52.0 °F - 24.4 °F 34% 29.83 in 10.0 mi NNE 5.8 mph - N/A   Clear
12:14 PM 52.2 °F - 23.4 °F 33% 29.83 in 10.0 mi NNE 5.8 mph - N/A   Clear
12:34 PM 52.3 °F - 25.2 °F 35% 29.83 in 10.0 mi North 4.6 mph - N/A   Clear
12:54 PM 52.3 °F - 22.8 °F 32% 29.83 in 10.0 mi Calm Calm - N/A   Clear
1:14 PM 53.6 °F - 22.5 °F 30% 29.83 in 10.0 mi NNE 8.1 mph - N/A   Clear
1:34 PM 54.7 °F - 20.8 °F 27% 29.82 in 10.0 mi NW 13.8 mph 21.9 mph N/A   Clear
1:54 PM 53.4 °F - 19.6 °F 27% 29.82 in 10.0 mi WNW 12.7 mph 20.7 mph N/A   Clear
2:14 PM 50.9 °F - 19.4 °F 29% 29.83 in 10.0 mi West 16.1 mph 20.7 mph N/A   Clear
2:34 PM 50.4 °F - 21.6 °F 32% 29.83 in 10.0 mi West 18.4 mph - N/A   Clear
2:54 PM 53.8 °F - 20.8 °F 28% 29.83 in 10.0 mi NW 11.5 mph 25.3 mph N/A   Clear
3:14 PM 55.2 °F - 19.6 °F 25% 29.82 in 10.0 mi WSW 9.2 mph 17.3 mph N/A   Clear
3:34 PM 54.5 °F - 19.9 °F 26% 29.82 in 10.0 mi West 13.8 mph 24.2 mph N/A   Clear
3:54 PM 53.8 °F - 20.3 °F 27% 29.82 in 10.0 mi West 16.1 mph 23.0 mph N/A   Clear
4:14 PM 53.6 °F - 22.1 °F 29% 29.82 in 10.0 mi West 15.0 mph 21.9 mph N/A   Clear
4:34 PM 52.7 °F - 22.1 °F 30% 29.82 in 10.0 mi West 17.3 mph 26.5 mph N/A   Clear
4:54 PM 51.4 °F - 22.3 °F 32% 29.82 in 10.0 mi WNW 24.2 mph 32.2 mph N/A   Clear
5:14 PM 50.2 °F - 22.1 °F 33% 29.82 in 10.0 mi WNW 17.3 mph 25.3 mph N/A   Clear
5:34 PM 48.2 °F - 23.0 °F 37% 29.83 in 10.0 mi WNW 6.9 mph - N/A   Clear
5:54 PM 45.1 °F 42.0 °F 23.9 °F 43% 29.83 in 10.0 mi West 5.8 mph - N/A   Clear
6:14 PM 45.9 °F 42.9 °F 21.7 °F 38% 29.83 in 10.0 mi WSW 5.8 mph - N/A   Clear
6:34 PM 45.7 °F 38.0 °F 23.0 °F 41% 29.84 in 10.0 mi West 19.6 mph 25.3 mph N/A   Clear
6:54 PM 45.5 °F 39.2 °F 23.0 °F 41% 29.84 in 10.0 mi SW 13.8 mph - N/A   Clear
7:14 PM 44.6 °F 40.7 °F 23.0 °F 43% 29.83 in 10.0 mi SW 6.9 mph - N/A   Clear
7:34 PM 46.4 °F 38.7 °F 21.6 °F 37% 29.84 in 10.0 mi West 20.7 mph 27.6 mph N/A   Clear
7:54 PM 46.9 °F - 20.8 °F 36% 29.85 in 10.0 mi West 18.4 mph 27.6 mph N/A   Clear
8:14 PM 46.9 °F - 21.2 °F 36% 29.85 in 10.0 mi West 13.8 mph 29.9 mph N/A   Clear
8:34 PM 47.1 °F - 21.2 °F 36% 29.84 in 10.0 mi West 16.1 mph 26.5 mph N/A   Clear
8:54 PM 46.9 °F - 21.7 °F 37% 29.85 in 10.0 mi WNW 16.1 mph 25.3 mph N/A   Clear
9:14 PM 47.5 °F - 21.7 °F 36% 29.86 in 10.0 mi West 18.4 mph 31.1 mph N/A   Clear
9:34 PM 46.8 °F - 22.8 °F 39% 29.86 in 10.0 mi WNW 17.3 mph 28.8 mph N/A   Clear
9:54 PM 46.8 °F - 23.2 °F 40% 29.87 in 10.0 mi WNW 17.3 mph 29.9 mph N/A   Clear
10:14 PM 46.0 °F 39.6 °F 23.9 °F 42% 29.86 in 10.0 mi WNW 15.0 mph 23.0 mph N/A   Clear
10:34 PM 47.1 °F - 22.8 °F 38% 29.87 in 10.0 mi West 16.1 mph 25.3 mph N/A   Clear
10:54 PM 47.7 °F - 21.9 °F 36% 29.88 in 10.0 mi WNW 23.0 mph 39.1 mph N/A   Clear
11:14 PM 47.7 °F - 22.1 °F 37% 29.89 in 10.0 mi WNW 17.3 mph 31.1 mph N/A   Clear
11:34 PM 47.1 °F - 23.5 °F 40% 29.89 in 10.0 mi WNW 13.8 mph 33.4 mph N/A   Clear
11:54 PM 46.6 °F - 24.1 °F 41% 29.90 in 10.0 mi WNW 10.4 mph 19.6 mph N/A   Clear